DW7121 Weather Reports


Display with metric or nautical units.
time (UTC)temp
F
wind
direction
speed
MPH
gust
MPH
rain 1hr
in
rain 24hr
in
rain mn
in
humidity
%
barometer
mb
20200118163037 56 146 8.0 17.0 0.00 0.00 0.00 48 1022.4
20200118161619 56 160 6.0 13.0 0.00 0.00 0.00 47 1022.2
20200118160101 56 158 1.0 7.0 0.00 0.00 0.00 51 1022.4
20200118154559 55 172 0.0 4.0 0.00 0.00 0.00 51 1022.6
20200118153037 54 210 1.0 9.0 0.00 0.00 0.00 53 1022.2
20200118151610 53 159 1.0 7.0 0.00 0.00 0.00 51 1022.1
20200118150044 53 122 1.0 8.0 0.00 0.00 0.00 51 1022.1
20200118144629 53 159 1.0 6.0 0.00 0.00 0.00 56 1022.0
20200118143105 53 53 2.0 6.0 0.00 0.00 0.00 54 1022.0
20200118141533 54 257 5.0 8.0 0.00 0.00 0.00 58 1022.0
20200118140109 54 158 3.0 12.0 0.00 0.00 0.00 58 1021.6
20200118134703 53 148 0.0 5.0 0.00 0.00 0.00 50 1021.6
20200118133028 55 152 0.0 6.0 0.00 0.00 0.00 50 1021.6
20200118131608 55 174 2.0 6.0 0.00 0.00 0.00 50 1021.6
20200118130033 56 239 4.0 7.0 0.00 0.00 0.00 48 1021.6
20200118124529 57 163 6.0 14.0 0.00 0.00 0.00 47 1021.4
20200118123017 56 138 6.0 13.0 0.00 0.00 0.00 48 1021.4
20200118121534 55 144 6.0 11.0 0.00 0.00 0.00 49 1021.5
20200118120034 55 142 1.0 9.0 0.00 0.00 0.00 50 1021.8
20200118114537 55 160 1.0 7.0 0.00 0.00 0.00 52 1021.9
20200118113021 55 156 1.0 12.0 0.00 0.00 0.00 76 1021.8
20200118111557 54 136 0.0 6.0 0.00 0.00 0.00 76 1021.8
20200118110009 53 159 0.0 4.0 0.00 0.00 0.00 76 1021.9
20200118104518 53 276 0.0 4.0 0.00 0.00 0.00 73 1021.9
20200118103021 53 322 0.0 3.0 0.00 0.00 0.00 71 1022.0
20200118101510 53 119 0.0 9.0 0.00 0.00 0.00 73 1022.0
20200118100003 53 222 0.0 4.0 0.00 0.00 0.00 73 1022.2
20200118094506 52 151 0.0 1.0 0.00 0.00 0.00 77 1022.2
20200118093004 51 142 0.0 6.0 0.00 0.00 0.00 77 1022.2
20200118091501 52 162 0.0 6.0 0.00 0.00 0.00 77 1022.1
20200118090321 53 176 0.0 6.0 0.00 0.00 0.00 77 1022.1
20200118083121 52 143 0.0 0.0 0.00 0.01 0.00 81 1022.7
20200118081708 51 143 0.0 0.0 0.00 0.01 0.00 81 1022.7
20200118080302 51 143 0.0 0.0 0.00 0.01 0.00 81 1022.8
20200118073158 50 143 0.0 1.0 0.00 0.05 0.01 78 1022.9
20200118071656 50 143 0.0 0.0 0.00 0.05 0.01 78 1023.0
20200118070241 52 142 0.0 1.0 0.00 0.05 0.01 79 1022.8
20200118063355 51 163 0.0 3.0 0.00 0.14 0.01 90 1022.9
20200118061701 51 149 0.0 4.0 0.00 0.14 0.01 88 1022.8
20200118060142 51 143 0.0 2.0 0.00 0.14 0.01 88 1022.8
20200118053230 51 188 0.0 2.0 0.00 0.15 0.01 88 1022.6
20200118051640 51 178 0.0 2.0 0.00 0.15 0.01 91 1022.4
20200118050140 51 169 0.0 3.0 0.00 0.15 0.01 90 1022.5
20200118043319 51 166 0.0 3.0 0.00 0.15 0.01 87 1022.2
20200118041702 51 170 1.0 3.0 0.00 0.15 0.01 86 1022.1
20200118040157 51 190 1.0 5.0 0.00 0.15 0.01 85 1022.2
20200118033138 51 176 2.0 4.0 0.00 0.15 0.01 84 1022.1
20200118031623 51 169 1.0 4.0 0.00 0.15 0.01 84 1022.2
20200118030209 51 145 0.0 6.0 0.00 0.15 0.01 83 1022.3
20200118023137 51 152 1.0 4.0 0.00 0.15 0.01 82 1022.4
20200118021607 51 160 1.0 6.0 0.00 0.15 0.01 81 1022.3
20200118020158 52 144 1.0 5.0 0.00 0.15 0.01 81 1022.2
20200118013136 52 136 0.0 3.0 0.00 0.15 0.01 83 1022.1
20200118011741 52 146 0.0 2.0 0.00 0.15 0.01 82 1022.1
20200118010106 53 159 0.0 2.0 0.00 0.15 0.01 78 1022.2
20200118003208 55 150 1.0 6.0 0.00 0.15 0.01 78 1022.2
20200118001607 55 288 2.0 6.0 0.00 0.15 0.01 74 1022.2
20200118000133 55 50 2.0 6.0 0.00 0.15 0.01 75 1022.4
20200117233311 56 65 1.0 7.0 0.00 0.15 0.01 73 1022.4
20200117231611 56 355 2.0 6.0 0.00 0.15 0.01 71 1022.4
20200117230122 56 79 1.0 5.0 0.00 0.15 0.01 73 1022.2
20200117223157 56 60 1.0 6.0 0.00 0.15 0.01 70 1022.0
20200117221628 57 82 2.0 6.0 0.00 0.15 0.01 69 1022.2
20200117220235 57 276 2.0 7.0 0.00 0.15 0.01 69 1022.3
20200117213124 55 316 1.0 5.0 0.00 0.15 0.01 68 1022.4
20200117211557 57 293 2.0 6.0 0.00 0.15 0.01 71 1022.4
20200117210125 57 308 3.0 7.0 0.00 0.15 0.01 73 1022.5
20200117203131 58 271 2.0 7.0 0.00 0.15 0.01 74 1022.9
20200117201654 57 262 2.0 7.0 0.00 0.15 0.01 77 1023.1
20200117200132 57 12 2.0 6.0 0.00 0.15 0.01 75 1023.2
20200117193120 56 136 2.0 7.0 0.00 0.15 0.01 79 1023.5
20200117191631 57 79 2.0 7.0 0.00 0.15 0.01 79 1023.8
20200117190048 56 42 0.0 6.0 0.00 0.15 0.01 81 1023.8
20200117183038 55 160 0.0 5.0 0.00 0.15 0.01 79 1023.8
20200117181621 54 169 1.0 5.0 0.00 0.15 0.01 77 1023.8
20200117180048 54 167 0.0 4.0 0.00 0.15 0.01 76 1023.7
20200117173023 54 153 0.0 5.0 0.00 0.15 0.01 86 1023.3
20200117171521 54 173 0.0 2.0 0.00 0.15 0.01 86 1023.1
20200117170020 53 165 0.0 1.0 0.00 0.15 0.01 86 1022.9